Wind_Speed
21 20 14 11 14 22 17 14 13 10 9 10 13 14 16 16 19 20 19 23 25 26 30 30 32 33 29 30 26 25 27 31 34 37 37 38 39 40 40 41 41 43 44 44
22 21 20 20 24 21 19 18 17 13 10 15 18 18 16 16 18 20 22 25 26 25 32 32 34 31 31 30 24 26 29 32 36 37 39 40 41 41 41 41 41 41 41 41
24 24 24 23 23 22 19 20 16 17 15 18 22 20 16 16 19 21 23 25 27 29 32 34 34 32 33 28 24 28 30 34 36 39 41 42 41 43 44 43 42 40 37 36
25 26 25 23 18 18 20 15 17 18 19 23 23 20 17 19 19 22 23 26 27 31 34 34 33 33 32 23 24 27 30 37 39 41 41 40 42 44 45 42 38 34 34 37
25 26 27 20 16 17 17 16 19 21 24 27 20 18 17 16 19 21 24 26 29 31 31 32 32 32 26 22 23 26 32 39 40 40 39 42 45 47 44 36 34 36 36 39
31 30 27 22 19 21 19 19 21 23 24 20 21 17 16 16 22 22 26 26 25 26 29 30 30 28 23 21 23 28 35 39 40 39 39 43 47 47 35 33 36 38 35 36
29 28 26 21 22 22 20 18 16 14 14 14 19 19 14 21 20 26 25 24 21 24 27 27 29 24 21 21 24 30 36 38 39 38 39 43 48 37 32 35 38 36 34 36
29 29 23 19 21 20 20 18 12 15 12 13 22 19 19 18 20 22 23 20 21 24 25 26 25 21 20 21 25 30 35 36 39 38 38 43 44 36 33 35 38 38 33 35
30 23 27 23 23 22 21 18 16 17 15 15 16 20 17 19 20 24 21 19 21 23 23 24 21 19 19 21 26 31 34 35 38 38 38 42 42 37 35 36 37 39 33 33
35 28 27 24 23 21 22 17 15 14 12 14 17 22 18 23 24 22 19 19 20 22 21 22 18 18 19 22 26 30 32 33 35 38 37 40 41 38 37 36 37 39 35 32
35 34 29 25 26 24 18 16 17 14 18 15 17 18 30 28 23 20 18 19 20 21 20 21 18 18 19 22 26 29 31 32 33 36 36 38 39 39 38 36 35 37 37 34
35 37 29 28 24 20 19 17 18 14 18 22 25 24 26 25 22 18 16 18 19 19 18 20 18 18 20 23 26 29 30 31 31 34 35 36 38 39 38 37 35 34 35 36
37 36 30 27 28 24 22 22 19 22 23 24 23 24 26 22 18 16 15 17 18 17 17 19 19 19 20 23 26 28 29 30 30 32 34 35 36 38 38 37 34 33 34 35
34 34 31 23 24 23 20 20 21 22 25 22 24 23 19 18 16 14 14 16 17 17 19 20 20 20 20 22 24 26 27 28 28 29 31 33 34 36 36 36 34 32 32 33
32 29 27 25 25 23 21 17 23 25 23 21 23 19 16 15 13 13 14 15 17 18 19 20 21 20 21 21 22 24 24 25 26 27 29 30 31 33 33 34 33 32 30 31
29 27 26 28 25 26 23 19 22 19 18 17 16 16 14 13 12 12 13 15 17 19 19 20 20 21 22 21 21 21 22 23 24 25 27 28 29 30 31 32 33 31 29 28
29 28 28 26 27 32 18 16 14 17 15 14 13 12 12 12 12 12 13 15 17 18 19 20 19 20 22 22 21 20 20 21 23 24 25 26 28 29 30 31 31 31 30 29
32 31 31 33 28 21 20 11 15 16 13 12 13 12 13 13 13 12 14 15 17 18 18 20 20 20 22 22 21 20 20 20 21 22 24 25 27 27 28 29 29 30 29 28
33 33 30 30 30 21 20 10 13 16 14 15 15 15 14 14 13 13 14 14 16 17 17 19 20 19 21 22 20 20 21 21 21 22 23 25 27 27 27 27 28 29 30 29
29 29 30 31 23 16 16 13 12 15 15 12 15 14 14 13 14 14 15 14 16 16 17 19 20 19 20 21 21 21 22 22 22 23 23 24 26 27 28 28 28 28 28 30
25 26 25 22 17 25 30 16 12 14 17 15 16 16 16 14 15 14 15 14 16 16 17 18 19 20 20 21 21 21 21 22 22 22 23 23 25 28 29 28 28 27 27 28
22 17 16 14 10 10 9 12 13 14 14 17 18 16 16 15 15 15 15 14 16 16 17 18 19 19 20 21 21 21 22 23 23 23 23 23 26 27 29 30 28 27 26 25
19 19 20 13 12 12 9 10 12 14 15 15 16 16 16 16 16 15 15 14 15 16 17 18 19 19 21 21 22 22 22 22 22 23 23 25 25 26 27 29 29 27 25 23
28 28 23 14 14 16 14 13 14 15 16 17 18 18 17 17 17 15 15 14 15 16 17 18 18 19 20 21 22 23 24 23 23 23 24 25 26 26 27 28 29 28 25 23
23 26 13 13 18 18 18 17 16 17 17 18 18 18 17 18 16 16 15 14 15 16 17 18 18 19 20 21 22 23 24 26 26 26 25 26 27 28 27 28 28 28 26 23
20 13 15 19 17 17 20 21 21 19 19 18 18 17 17 17 16 15 14 14 15 16 17 18 19 19 20 22 22 22 23 26 28 29 28 28 28 28 28 28 28 26 26 26
Wind_Direction
218 225 210 209 206 231 228 239 257 271 291 303 312 320 330 331 333 334 339 335 335 332 331 328 328 327 328 325 322 321 326 328 324 324 321 318 318 316 316 316 315 314 313 312
212 217 223 214 216 223 225 241 252 274 286 299 308 316 322 323 330 332 334 328 325 324 327 328 328 328 331 328 326 334 333 327 327 324 323 324 323 323 322 322 320 316 315 317
209 205 215 222 226 232 235 238 258 280 296 296 303 304 320 329 333 328 325 321 321 325 324 326 327 332 330 328 333 336 331 331 329 330 331 331 330 331 331 328 324 324 324 324
210 218 221 228 236 237 237 245 265 280 283 291 306 303 314 320 324 320 316 315 319 321 325 326 329 332 329 332 334 331 335 338 338 337 337 336 337 337 334 330 331 332 332 331
210 219 229 234 240 232 227 242 265 274 281 293 301 303 304 316 319 313 311 318 318 321 322 326 330 331 332 339 328 332 341 344 342 341 342 342 341 339 338 341 343 341 337 337
206 214 224 228 231 229 232 243 262 274 282 296 297 312 308 316 316 320 319 321 322 323 324 327 330 329 338 332 326 337 347 346 345 347 346 345 344 343 348 351 348 343 341 342
212 217 220 222 226 225 239 256 274 279 293 295 301 316 303 311 313 321 319 320 323 325 327 329 329 328 334 326 332 346 348 348 350 351 349 348 349 352 354 354 351 347 345 347
215 215 218 224 218 228 249 260 235 269 277 286 292 313 315 313 320 322 323 324 326 329 331 332 326 330 329 329 341 350 350 349 354 354 352 353 355 354 352 354 354 353 347 352
212 205 211 210 216 227 241 240 247 265 278 296 287 318 315 321 318 320 323 325 329 328 332 331 325 331 332 338 345 351 351 351 355 355 355 357 358 356 351 352 354 356 354 356
210 206 208 207 217 227 237 249 261 277 279 300 297 308 306 322 323 322 322 326 329 329 333 329 324 333 339 346 349 352 351 351 356 356 356 358 359 357 353 353 355 359 360 357
210 212 205 210 218 228 241 256 264 262 273 278 292 298 298 320 321 319 321 326 329 332 331 327 326 335 345 348 350 351 352 350 357 356 357 357 360 360 358 355 356 0 4 4
213 214 209 214 220 235 245 247 266 267 283 287 293 295 306 314 319 317 323 326 331 331 328 333 331 338 346 347 348 351 352 350 355 358 359 358 359 1 2 0 358 1 4 8
210 216 219 217 225 235 243 256 266 280 287 288 292 288 308 310 311 313 323 330 330 330 329 338 339 340 343 346 349 351 354 351 354 360 1 359 358 1 4 4 0 3 4 8
207 212 215 224 237 239 250 253 270 285 289 282 295 295 302 305 306 312 327 329 329 333 333 339 344 344 342 345 348 352 355 353 356 1 4 1 359 359 4 6 4 3 5 6
204 210 215 220 226 234 234 252 276 291 291 280 285 295 299 299 300 318 326 325 333 334 333 341 344 345 344 344 346 352 354 356 357 360 2 2 0 360 2 6 7 4 3 7
203 209 217 228 232 238 232 265 285 282 282 285 285 290 291 293 307 320 322 326 334 334 336 344 345 347 345 341 342 349 353 355 355 358 1 1 359 359 1 3 7 8 3 4
207 212 217 225 238 256 229 271 272 287 291 293 294 299 295 300 309 314 321 323 333 334 341 344 343 346 343 338 337 342 348 353 354 356 360 0 358 358 359 1 5 6 7 3
212 218 219 243 236 257 236 271 273 288 298 302 296 296 304 301 304 308 316 319 331 338 342 344 343 345 343 340 337 338 343 349 349 351 353 356 356 357 356 356 0 4 4 3
213 221 239 233 247 244 256 248 276 295 296 297 296 304 297 296 303 305 311 318 329 339 341 343 342 345 345 344 339 338 340 343 345 347 350 350 353 353 353 353 353 359 3 3
214 225 237 254 259 230 241 231 278 281 284 308 310 301 295 294 297 300 307 315 327 337 339 341 339 342 346 347 342 340 342 342 343 344 348 348 349 350 350 351 351 352 356 1
219 236 255 263 285 248 233 229 265 275 275 300 308 301 294 291 293 296 303 315 322 332 337 337 338 340 343 344 346 344 344 345 346 346 347 347 346 346 347 348 350 350 351 354
212 228 246 259 263 287 283 269 268 273 284 295 302 304 290 287 288 292 301 312 319 326 333 334 337 339 342 345 348 348 347 346 345 346 346 345 345 344 345 348 350 350 348 347
199 229 230 242 264 280 285 275 280 284 291 291 298 296 291 284 283 289 300 309 315 321 329 333 336 337 340 345 348 350 350 347 345 345 344 343 343 343 344 346 349 350 349 346
230 233 235 248 266 276 283 276 274 283 287 290 293 299 287 281 283 290 299 305 311 317 325 329 333 337 340 344 346 349 348 345 343 343 342 340 341 341 341 344 346 348 348 347
253 235 233 260 272 275 278 283 281 279 284 294 286 284 278 276 281 286 295 301 309 316 322 325 328 334 338 341 343 344 345 343 340 339 338 340 340 339 338 341 343 345 346 345
252 260 254 261 266 276 287 286 284 290 290 283 280 276 271 270 278 284 294 300 308 314 322 324 326 331 333 333 336 338 340 339 339 336 335 337 338 336 335 337 341 343 342 340
Height
5891 5894 5897 5900 5903 5902 5905 5906 5906 5906 5905 5904 5902 5900 5897 5895 5892 5889 5885 5881 5878 5875 5871 5866 5861 5855 5849 5844 5839 5834 5830 5823 5817 5810 5803 5795 5788 5780 5772 5764 5755 5746 5739 5731
5888 5891 5895 5896 5898 5899 5901 5903 5903 5904 5902 5902 5900 5899 5896 5893 5889 5885 5880 5877 5875 5873 5868 5862 5857 5851 5844 5839 5834 5830 5824 5818 5812 5805 5798 5790 5780 5772 5763 5755 5747 5739 5731 5722
5884 5889 5889 5891 5894 5896 5898 5901 5901 5900 5899 5899 5898 5897 5894 5891 5886 5882 5878 5875 5872 5868 5864 5858 5853 5847 5841 5836 5831 5826 5821 5815 5808 5799 5791 5782 5773 5764 5755 5746 5737 5729 5722 5715
5879 5882 5886 5889 5892 5894 5896 5897 5898 5897 5897 5896 5896 5897 5892 5888 5884 5879 5875 5872 5869 5864 5858 5854 5849 5843 5837 5832 5828 5824 5818 5810 5802 5793 5785 5776 5766 5757 5748 5738 5730 5722 5715 5707
5876 5878 5881 5886 5889 5891 5893 5894 5895 5895 5895 5895 5894 5891 5887 5885 5881 5877 5873 5870 5865 5860 5855 5850 5845 5839 5834 5830 5826 5821 5814 5805 5797 5788 5779 5769 5760 5750 5740 5731 5723 5715 5708 5700
5869 5874 5878 5883 5885 5887 5890 5893 5894 5894 5893 5892 5890 5888 5888 5881 5877 5874 5871 5866 5861 5856 5851 5847 5841 5837 5832 5828 5824 5817 5809 5801 5792 5783 5775 5766 5756 5745 5735 5728 5720 5711 5703 5695
5868 5871 5875 5880 5883 5886 5889 5891 5894 5894 5894 5895 5888 5884 5883 5878 5874 5871 5866 5862 5857 5852 5848 5843 5839 5834 5830 5826 5821 5813 5805 5797 5789 5780 5772 5763 5753 5743 5735 5727 5718 5709 5701 5692
5865 5868 5872 5877 5881 5886 5887 5890 5894 5893 5894 5893 5885 5880 5877 5874 5872 5868 5862 5858 5853 5848 5845 5840 5836 5831 5828 5823 5817 5809 5801 5794 5785 5778 5770 5761 5751 5741 5734 5726 5717 5707 5698 5690
5863 5867 5870 5875 5878 5884 5885 5885 5886 5885 5885 5884 5885 5876 5874 5871 5868 5863 5859 5854 5850 5846 5842 5837 5833 5829 5825 5820 5813 5806 5799 5791 5783 5776 5767 5758 5749 5741 5733 5724 5716 5706 5697 5689
5858 5863 5868 5872 5876 5879 5881 5883 5883 5882 5883 5882 5881 5875 5871 5868 5863 5860 5856 5851 5847 5843 5839 5835 5830 5826 5821 5816 5810 5803 5796 5789 5782 5774 5765 5757 5748 5739 5731 5723 5714 5706 5697 5689
5856 5861 5867 5869 5872 5876 5878 5878 5879 5879 5879 5879 5879 5878 5868 5863 5860 5856 5852 5849 5845 5840 5836 5832 5827 5823 5818 5812 5807 5800 5794 5787 5780 5772 5764 5756 5747 5739 5729 5721 5713 5706 5697 5688
5854 5857 5862 5866 5869 5872 5874 5875 5874 5876 5877 5872 5871 5870 5864 5860 5856 5853 5850 5846 5842 5837 5833 5828 5824 5819 5814 5809 5804 5797 5792 5785 5778 5770 5762 5755 5747 5738 5729 5720 5712 5705 5697 5689
5850 5854 5860 5863 5867 5869 5870 5871 5871 5871 5871 5867 5867 5866 5859 5856 5853 5850 5847 5843 5839 5835 5830 5825 5820 5816 5812 5806 5801 5795 5789 5783 5776 5769 5761 5754 5746 5738 5729 5721 5712 5705 5697 5689
5847 5852 5858 5863 5865 5865 5865 5867 5867 5867 5866 5865 5861 5857 5855 5852 5850 5846 5843 5840 5836 5832 5827 5823 5817 5813 5809 5804 5798 5793 5787 5782 5775 5768 5760 5753 5746 5739 5730 5722 5713 5705 5698 5690
5845 5850 5854 5857 5858 5859 5860 5862 5862 5861 5860 5858 5854 5852 5850 5848 5846 5842 5840 5837 5833 5828 5824 5819 5814 5810 5805 5801 5796 5790 5785 5780 5774 5767 5760 5753 5746 5739 5731 5723 5714 5706 5698 5690
5842 5847 5850 5852 5854 5854 5855 5856 5857 5855 5854 5852 5850 5848 5846 5844 5841 5839 5836 5834 5830 5826 5821 5816 5811 5807 5802 5798 5794 5788 5783 5778 5772 5765 5759 5752 5746 5739 5731 5723 5715 5707 5699 5691
5840 5843 5845 5847 5847 5847 5850 5851 5851 5851 5850 5848 5845 5843 5841 5839 5837 5835 5834 5831 5827 5822 5817 5812 5808 5804 5800 5795 5791 5786 5781 5776 5770 5764 5757 5751 5744 5738 5731 5723 5715 5706 5699 5691
5835 5838 5840 5842 5842 5844 5843 5846 5847 5847 5845 5843 5841 5839 5837 5836 5834 5832 5830 5827 5823 5818 5814 5810 5806 5802 5797 5793 5788 5783 5778 5773 5767 5761 5756 5750 5744 5737 5730 5723 5715 5708 5700 5692
5830 5832 5833 5835 5836 5838 5841 5841 5843 5842 5841 5838 5836 5835 5833 5832 5830 5829 5827 5824 5820 5815 5811 5807 5804 5799 5795 5790 5785 5781 5775 5770 5765 5759 5754 5748 5742 5736 5729 5722 5715 5709 5701 5694
5827 5829 5831 5831 5831 5833 5834 5836 5836 5836 5835 5834 5833 5831 5829 5828 5827 5825 5823 5820 5817 5812 5809 5805 5801 5797 5792 5787 5782 5777 5773 5768 5763 5758 5752 5746 5740 5734 5728 5721 5715 5708 5702 5695
5823 5826 5828 5829 5827 5825 5827 5829 5831 5833 5834 5830 5829 5826 5825 5824 5823 5822 5820 5816 5813 5809 5805 5801 5798 5794 5789 5784 5779 5774 5770 5765 5760 5755 5749 5744 5738 5732 5726 5719 5713 5707 5701 5695
5818 5821 5823 5824 5823 5825 5825 5826 5828 5828 5827 5826 5824 5822 5821 5820 5819 5818 5816 5812 5809 5806 5802 5799 5794 5791 5786 5782 5777 5772 5767 5763 5758 5752 5747 5742 5736 5730 5723 5717 5712 5705 5700 5694
5813 5816 5818 5820 5821 5822 5822 5822 5823 5823 5822 5822 5820 5818 5817 5816 5815 5813 5811 5808 5805 5803 5799 5796 5792 5788 5783 5778 5774 5769 5764 5759 5755 5750 5744 5739 5733 5727 5720 5715 5709 5703 5698 5693
5808 5809 5813 5815 5816 5817 5818 5818 5818 5818 5818 5816 5815 5813 5812 5812 5811 5809 5806 5804 5801 5799 5795 5792 5789 5785 5781 5776 5772 5767 5763 5758 5753 5747 5742 5736 5730 5724 5718 5712 5706 5701 5696 5691
5803 5804 5808 5810 5811 5812 5813 5813 5813 5813 5813 5811 5809 5808 5807 5807 5806 5804 5802 5800 5798 5795 5792 5788 5785 5782 5779 5774 5769 5764 5760 5756 5751 5745 5739 5733 5727 5721 5716 5710 5704 5699 5694 5688
5800 5801 5804 5806 5806 5807 5807 5807 5807 5807 5807 5805 5804 5803 5803 5803 5802 5800 5798 5797 5795 5792 5788 5785 5782 5779 5775 5771 5766 5762 5756 5751 5747 5743 5737 5730 5724 5719 5713 5708 5703 5697 5691 5686